XRISM

operational
NORAD ID: 57800 Int'l Des: 2023-137 Owner: JAXA/ISASJ Country: J
LEOCIRCULAR

XRISMについて

説明を読み込み中...

リアルタイム位置

3D地球を読み込み中...

次回通過

高度履歴

Altitude vs Time

uPlot chart will show altitude changes over time

軌道要素

1 57800U 23137A 26063.02731354 .00008362 00000-0 47679-3 0 9993
2 57800 31.0031 320.2862 0008161 341.2942 18.7396 15.11422447136931
Epoch: Mar 4, 2026 • Age: 9 hours

現在のステータス

高度 535.1 km
速度 7.60 km/s
衛星直下点 13.22°N, 174.09°E
打ち上げ日 Sep 6, 2023
運用期間 2.4 years
タイプ other

技術仕様

分類 Payload
質量 2700.00 kg
乾燥質量 2700.00 kg
総質量 2700.00 kg
長さ 4.50 m
直径 2.20 m
スパン 14.00 m
形状 Oct+2 pan+boom
製造者 TSUK/NECTF
バスタイプ Astro-H
フェーズステータス In Orbit
所有者/国 JAXA/ISASJ/J

大規模コンステレーション

Loading constellations...